Flag for Germany Weather past 2 weeks in Varel, Lower Saxony, Germany

Now
43 °F

Drizzle. Fog.


Feels Like: 39 °F
Forecast: 32 / 45 °F
Wind: 7 mph from Southwest

Location: Wittmundhaven

Current Time: Feb 27, 2015 at 1:50:47 AM

Latest Report: Feb 27, 2015 at 1:20 AM


Visibility: 3 mi

Pressure: 29.77 "Hg

Humidity: 93%

Dew point: 41 °F

Location of VarelLocation

Historic Weather in Varel — Graph

°F

Varel temperature yesterday

Maximum temperature yesterday: 48 °F (at 3:20 PM)
Minimum temperature yesterday: 34 °F (at 12:20 AM)
Average temperature yesterday: 41 °F

Past Weeks' High & Low Weather Summary

 TemperatureHumidityPressure
High48 °F (Feb 14, 2:20 PM)100% (Feb 13, 6:20 AM)30.69 "Hg (Feb 13, 6:20 AM)
Low25 °F (Feb 17, 6:20 AM)61% (Feb 22, 3:20 PM)29.21 "Hg (Feb 23, 6:20 AM)
Average37 °F87%29.94 "Hg
* Reported Feb 12 12:20 AM — Feb 27 12:20 AM, Varel, Weather by CustomWeather, © 2015

Note: Actual official high and low records may vary slightly from our data, if they occured in-between our weather recording intervals... More about our weather records

Advertising

Varel weather history for previous 24 hours

 ConditionsComfort  
Time TempWeatherWind HumidityBarometerVisibility
12:20 AM
Fri, Feb 27
43 °FDrizzle. Fog.9 mph93%29.77 "Hg3 mi
11:20 PM
Thu, Feb 26
43 °FDrizzle. Fog.13 mph93%29.77 "Hg1 mi
10:20 PM43 °FDrizzle. Fog.13 mph93%29.77 "Hg1 mi
9:20 PM43 °FDrizzle. Fog.15 mph93%29.80 "Hg2 mi
8:20 PM43 °FLight rain. Fog.18 mph93%29.80 "Hg2 mi
7:20 PM45 °FLight rain. Passing clouds.14 mph81%29.83 "HgN/A
6:20 PM46 °FLight rain. Passing clouds.15 mph76%29.83 "HgN/A
5:20 PM46 °FLight rain. Partly sunny.16 mph71%29.86 "HgN/A
5:00 PM46 °FPartly sunny.16 mph71%29.86 "HgN/A
4:20 PM48 °FPartly sunny.16 mph66%29.86 "HgN/A
3:20 PM48 °FPartly sunny.22 mph62%29.89 "HgN/A
2:20 PM46 °FPartly sunny.18 mph71%29.92 "HgN/A
1:20 PM46 °FPartly sunny.17 mph71%29.95 "HgN/A
12:20 PM43 °FScattered clouds.16 mph81%29.98 "Hg5 mi
11:20 AM41 °FFog.15 mph87%30.01 "Hg3 mi
10:47 AM39 °FFog.15 mph93%30.04 "Hg2 mi
10:20 AM39 °FFog.16 mph93%30.04 "Hg2 mi
9:20 AM37 °FFog.9 mph93%30.07 "Hg2 mi
8:20 AM37 °FFog.10 mph100%30.04 "Hg2 mi
7:20 AM39 °FFog.8 mph93%30.07 "Hg1 mi
6:20 AM39 °FFog.10 mph93%30.07 "Hg2 mi
5:20 AM39 °FFog.8 mph93%30.07 "Hg2 mi
4:20 AM37 °FFog.6 mph100%30.07 "Hg2 mi
3:51 AM37 °FFog.5 mph100%30.07 "Hg1 mi
3:20 AM37 °FFog.5 mph93%30.09 "Hg1 mi
2:20 AM36 °FFog.2 mph100%30.09 "Hg1 mi
1:46 AM36 °FFog.2 mph100%30.09 "Hg1 mi
1:20 AM34 °FFog.2 mph100%30.09 "Hg1 mi
Weather by CustomWeather, © 2015

See weather overviewHow to use our weather pages